FW5735 Weather Reports


Display with metric or nautical units.
time (UTC)temp
F
wind
direction
speed
MPH
gust
MPH
rain 1hr
in
rain 24hr
in
rain mn
in
humidity
%
barometer
mb
20260504174522 55 244 14.0 28.0 0.00 0.63 0.03 66 1000.2
20260504173020 54 247 13.0 29.0 0.00 0.63 0.03 66 1000.0
20260504171517 53 257 16.0 30.0 0.00 0.63 0.03 69 1000.0
20260504050022 39 260 11.0 19.0 0.02 0.55 0.05 97 978.9
20260504044521 39 257 9.0 16.0 0.01 0.54 0.04 97 978.4
20260504043023 39 284 6.0 14.0 0.01 0.54 0.03 97 978.2
20260504041509 41 266 8.0 14.0 0.02 0.54 0.03 98 977.4
20260504040015 40 267 3.0 9.0 0.03 0.54 0.03 98 977.1
20260504034502 40 284 2.0 6.0 0.03 0.54 0.03 98 976.6
20260504033105 40 307 1.0 6.0 0.02 0.53 0.02 98 976.4
20260504031604 40 304 2.0 8.0 0.02 0.52 0.02 98 976.2
20260504030054 40 319 3.0 8.0 0.01 0.50 0.00 98 976.1
20260504024551 41 5 6.0 10.0 0.02 0.50 0.50 98 976.0
20260504023050 41 5 3.0 9.0 0.01 0.50 0.50 98 976.1
20260504021547 41 66 3.0 9.0 0.02 0.50 0.50 98 976.2
20260504020056 42 93 3.0 10.0 0.02 0.50 0.50 98 976.5
20260504014550 42 88 5.0 14.0 0.02 0.49 0.49 98 977.0
20260504013040 41 88 4.0 14.0 0.02 0.49 0.49 98 977.2
20260504011542 41 67 7.0 18.0 0.02 0.48 0.48 98 977.4
20260504010036 41 326 7.0 17.0 0.02 0.48 0.48 98 978.4
20260504004534 41 207 6.0 17.0 0.02 0.47 0.47 98 979.2
20260504003028 40 273 7.0 17.0 0.03 0.46 0.46 98 979.9
20260504001526 40 5 10.0 21.0 0.03 0.46 0.46 97 980.7
20260504000022 40 60 8.0 20.0 0.04 0.46 0.46 97 981.6
20260503234521 40 355 9.0 18.0 0.04 0.45 0.45 97 982.6
20260503233015 39 77 9.0 22.0 0.04 0.43 0.43 97 983.2
20260503231513 39 112 7.0 18.0 0.08 0.43 0.43 97 983.6
20260503230009 39 92 11.0 22.0 0.13 0.42 0.42 97 984.4
20260503224504 39 65 12.0 21.0 0.16 0.41 0.41 97 985.6
20260503223003 39 27 11.0 21.0 0.15 0.39 0.39 96 986.6
20260503221602 40 75 8.0 23.0 0.12 0.35 0.35 96 987.6
20260503220055 40 79 9.0 18.0 0.07 0.28 0.28 96 988.7
20260503214551 41 196 8.0 21.0 0.07 0.25 0.25 96 989.5
20260503213052 41 132 9.0 19.0 0.11 0.24 0.24 96 990.5
20260503211603 42 218 4.0 18.0 0.12 0.23 0.23 96 991.5
20260503210041 42 86 6.0 20.0 0.13 0.22 0.22 96 992.4
20260503204538 42 92 6.0 13.0 0.12 0.18 0.18 96 993.1
20260503203043 42 94 7.0 16.0 0.09 0.13 0.13 95 993.6
20260503201534 42 81 8.0 18.0 0.08 0.11 0.11 94 993.9
20260503200037 42 101 7.0 18.0 0.07 0.09 0.09 94 994.7
20260503194526 42 116 4.0 15.0 0.06 0.06 0.06 93 995.6
20260503193029 42 84 4.0 12.0 0.03 0.04 0.04 91 996.8
20260503191519 42 129 4.0 11.0 0.03 0.03 0.03 90 997.6
20260503190015 43 82 3.0 8.0 0.01 0.01 0.01 89 998.5
20260503184515 43 140 2.0 9.0 0.01 0.01 0.01 89 998.9
20260503183014 42 57 4.0 19.0 0.01 0.01 0.01 87 998.2
20260503181510 43 101 4.0 13.0 0.00 0.00 0.00 87 999.3
20260503180009 43 78 4.0 18.0 0.00 0.00 0.00 87 1000.6